Location: Unspecified
(0.0000°N, 0.0000°E)
Time: 07:54:01
(UTC+00:00)

ISS - Pass Details

Date: 23 November 2017
Orbit: 402 x 407 km, 51.6° (Epoch: 21 November)

Event Time Altitude Azimuth Distance (km) Brightness Sun altitude
Rises 18:11:19 0° 248° (WSW) 2,319 3.0 -5.8°
Reaches altitude 10° 18:14:24 10° 280° (W) 1,455 0.0 -6.5°
Maximum altitude 18:15:49 12° 306° (NW) 1,323 -0.7 -6.9°
Drops below altitude 10° 18:17:14 10° 332° (NNW) 1,451 -0.9 -7.2°
Sets 18:20:17 0° 4° (N) 2,305 -0.2 -7.9°
